User: anonymous   Login
Location: Unspecified
(0.0000°N, 0.0000°E)
Time: 09:18:34
(UTC+00:00)
Language:

Kosmos-2266 - Orbit

View from above orbital plane
View from above orbital plane
View from above satellite
View from above satellite

Ground track
Ground track

The orbit data is extracted from the following two-line orbital elements,

1 22888U 93070A   17086.91075955 +.00000013 +00000-0 -20265-5 0  9995
2 22888 082.9508 053.5038 0047081 224.2738 187.5545 13.74901204171380
Epoch (UTC): 27 March 2017 21:51:29
Eccentricity: 0.0047081
inclination: 82.9508°
perigee height: 947 km
apogee height: 1016 km
right ascension of ascending node: 53.5038°
argument of perigee: 224.2738°
revolutions per day: 13.74901204
mean anomaly at epoch: 187.5545°
orbit number at epoch: 17138

The dashed part of the orbit path shows where the satellite is in the earth's shadow,  

DLR